Regional Weather Roundup
Issued by NWS

Home | Current Version | Previous Version | Graphics & Text | Print | Product List | Glossary On
Versions: 1 2 3 4 5 6 7 8 9 10 11 12 13 14 15 16 17 18 19 20 21 22 23 24 25 26 27 28 29 30 31 32 33 34 35 36 37 38 39 40 41 42 43 44 45 46 47 48 49 50
000
ASUS43 KBIS 191320
RWRND

NORTH DAKOTA REGIONAL WEATHER ROUNDUP
NATIONAL WEATHER SERVICE BISMARCK ND
800 AM CDT FRI SEP 19 2014

NOTE: "FAIR" INDICATES FEW OR NO CLOUDS BELOW 12,000 FEET WITH NO
SIGNIFICANT WEATHER AND/OR OBSTRUCTIONS TO VISIBILITY.


NDZ001>003-009>011-017-191400-
NORTHWEST NORTH DAKOTA

CITY           SKY/WX    TMP DP  RH WIND       PRES   REMARKS
WILLISTON      MOCLDY    61  50  67 W13       29.61R
MINOT          CLOUDY    65  55  70 SW13      29.53R
MINOT AFB      CLOUDY    63  57  82 W5        29.51R
$$

NDZ018>021-031>035-040>046-191400-
SOUTHWEST NORTH DAKOTA

CITY           SKY/WX    TMP DP  RH WIND       PRES   REMARKS
BISMARCK       CLOUDY    65  60  84 W7        29.61F
DICKINSON      CLOUDY    62  53  72 W12       29.65S
GARRISON         N/A     64  57  78 W7        29.58R
HETTINGER ARPT CLOUDY    58  54  86 W9        29.71R
$$

NDZ004>008-012>016-024-026-027-054-191400-
NORTHEAST NORTH DAKOTA

CITY           SKY/WX    TMP DP  RH WIND       PRES   REMARKS
GRAND FORKS    CLOUDY    64  60  87 S17       29.53F
GRND FRKS AFB  CLOUDY    65  64  96 S12       29.53F
DEVILS LAKE    CLOUDY    66  57  72 SW17      29.50F
$$

NDZ022-023-025-028>030-036>039-047>053-191400-
SOUTHEAST NORTH DAKOTA

CITY           SKY/WX    TMP DP  RH WIND       PRES   REMARKS
FARGO          CLOUDY    62  56  80 S17       29.66R
JAMESTOWN      LGT RAIN  63  61  93 S15G25    29.58F
$$



USA.gov is the U.S. government's official web portal to all federal, state and local government web resources and services.